EHI
0 0 0 0 0 0 0 0 0 0 0 0 0 0 0 0 0 0 0 0 0 0 0 0 0 0 0 0 0 0 0 0 0 0 0 0 0 0 0 0 0 0 0
0 0 0 0 0 0 0 0 0 0 0 0 0 0 0 0 0 0 0 0 0 0 0 0 0 0 0 0 0 0 0 0 0 0 0 0 0 0 0 0 0 0 0
0 0 0 0 0 0 0 0 0 0 0 0 0 0 0 0 0 0 0 0 0 0 0 0 0 0 0 0 0 0 0 0 0 0 0 0 0 0 0 0 0 0 0
0 0 0 0 0 0 0 0 0 0 1 0 0 0 0 0 0 0 0 0 0 0 0 0 0 0 0 0 0 0 0 0 0 0 0 0 0 0 0 0 0 0 0
0 0 0 0 0 0 0 0 0 0 1 1 1 0 0 0 0 0 0 0 0 0 0 0 0 0 0 0 0 0 0 0 0 0 0 0 0 0 0 0 0 0 0
0 0 0 0 0 1 2 1 1 1 1 1 1 0 0 0 0 0 0 0 0 0 0 0 0 0 0 0 0 0 0 0 0 0 0 0 0 0 0 0 0 0 0
0 0 0 0 1 2 3 3 2 2 1 1 1 0 0 0 0 0 0 0 0 0 0 0 0 0 0 0 0 0 0 0 0 0 0 0 0 0 0 0 0 0 0
0 0 0 0 1 2 3 3 3 2 1 0 0 0 0 0 0 0 0 0 0 0 0 0 0 0 0 0 0 0 0 0 0 0 0 0 0 0 0 0 0 0 0
0 0 0 0 1 2 3 3 2 1 0 0 0 0 0 0 0 0 0 0 0 0 0 0 0 0 0 0 0 0 0 0 0 0 0 0 0 0 0 0 0 0 0
0 0 0 0 0 1 2 2 1 0 0 0 0 0 0 0 0 0 0 0 0 0 0 0 0 0 0 0 0 0 0 0 0 0 0 0 0 0 0 0 0 0 0
0 0 0 0 0 0 1 1 0 0 0 0 0 0 0 0 0 0 0 0 0 0 0 0 0 0 0 0 0 0 0 0 0 0 0 0 0 0 0 0 0 0 0
0 0 0 0 0 0 0 0 0 0 0 0 0 0 0 1 0 0 0 0 0 0 0 0 0 0 0 0 0 0 0 0 0 0 0 0 0 0 0 0 0 0 0
0 0 0 0 0 0 0 0 0 0 0 0 0 0 0 0 0 0 0 0 0 0 0 0 0 0 0 0 0 0 0 0 0 0 0 0 0 0 0 0 0 0 0
0 0 0 0 0 0 0 0 0 0 0 0 1 0 0 0 0 0 0 0 0 0 0 0 0 0 0 0 0 0 0 0 0 0 0 0 0 0 0 0 0 0 0
0 0 0 0 0 0 0 0 0 0 0 0 0 0 0 0 0 0 0 0 0 0 0 0 0 0 0 0 0 0 0 0 0 0 0 0 0 0 0 0 0 0 0
0 0 0 0 0 0 0 0 0 0 0 0 0 0 0 0 0 0 0 0 0 0 0 0 0 0 0 0 0 0 0 0 0 0 0 0 0 0 0 0 0 0 0
0 0 0 0 0 0 0 0 0 0 0 0 0 0 0 0 0 0 0 0 0 0 0 0 0 0 0 0 0 0 0 0 0 0 0 0 0 0 0 0 0 0 0
0 0 0 0 0 0 0 0 0 0 0 0 0 0 0 0 0 0 0 0 0 0 0 0 0 0 0 0 0 0 0 0 0 0 0 0 0 0 0 0 0 0 0
0 0 0 0 0 0 0 0 0 0 0 0 0 0 0 0 0 0 0 0 0 0 0 0 0 0 0 0 0 0 0 0 0 0 0 0 0 0 0 0 0 0 0
0 0 0 0 0 0 0 0 0 0 0 0 0 0 0 0 0 0 0 0 0 0 0 0 0 0 0 0 0 0 0 0 0 0 0 0 0 0 0 0 0 0 0
0 0 0 0 0 0 0 0 0 0 0 0 0 0 0 0 0 0 0 0 0 0 0 0 0 0 0 0 0 0 0 0 0 0 0 0 0 0 0 0 0 0 0
0 0 0 0 0 0 0 0 0 0 0 0 0 0 0 0 0 0 0 0 0 0 0 0 0 0 0 0 0 0 0 0 0 0 0 0 0 0 0 0 0 0 0
0 0 0 0 0 0 0 0 0 0 0 0 0 0 0 0 0 0 0 0 0 0 0 0 0 0 0 0 0 0 0 0 0 0 0 0 0 0 0 0 0 0 0
0 0 0 0 0 0 0 0 0 0 0 0 0 0 0 0 0 0 0 0 0 0 1 1 1 1 0 0 0 0 0 0 0 0 0 0 0 0 0 0 0 0 0
0 0 0 0 0 0 0 0 0 0 0 0 0 0 0 0 0 0 0 0 0 0 1 2 2 1 0 0 0 0 0 0 0 0 0 0 0 0 0 0 0 0 0
0 0 0 0 0 0 0 0 0 0 0 0 0 0 0 0 0 0 0 0 0 0 1 1 1 1 0 0 0 0 0 0 0 0 0 0 0 0 0 0 0 0 0
Wind_Speed
7 7 8 8 8 8 7 7 7 7 5 4 3 2 2 2 2 3 3 3 4 4 4 3 4 4 3 3 3 3 3 2 2 1 1 2 2 3 3 2 2 3 3
8 8 9 9 9 8 7 8 7 7 6 3 2 2 2 1 2 2 2 3 4 4 3 4 3 3 3 3 4 3 3 3 3 2 1 0 2 2 3 2 3 3 2
10 10 9 9 9 8 8 6 7 7 5 5 3 3 3 2 2 2 2 3 3 3 4 4 4 3 3 3 4 4 4 3 3 4 3 2 2 1 2 3 3 3 3
10 10 10 9 9 9 8 8 8 7 6 6 4 4 2 2 2 1 2 2 2 3 3 4 4 4 3 3 3 4 3 3 2 2 3 3 3 2 1 2 3 3 3
11 11 10 10 9 9 8 7 7 6 6 5 4 3 2 2 2 1 2 1 2 2 3 3 3 3 3 4 4 4 4 3 3 3 2 2 1 2 2 2 2 2 3
11 11 10 9 9 8 7 7 7 6 5 5 5 4 3 2 2 2 2 1 2 2 3 2 2 3 3 3 3 3 3 3 3 3 3 3 2 3 2 2 2 2 3
12 12 11 11 10 9 9 8 8 7 6 5 4 4 3 3 2 2 2 1 1 2 2 1 2 3 3 3 3 3 3 3 3 3 3 3 3 3 3 3 3 2 1
12 12 12 11 10 10 9 9 8 7 6 5 4 3 3 2 2 1 1 1 1 2 2 1 2 3 3 2 3 2 3 3 3 3 3 2 3 3 2 3 3 2 1
12 12 12 11 11 10 10 9 9 8 7 5 4 4 3 2 2 2 1 1 1 2 2 2 2 2 2 2 2 2 3 3 3 3 3 2 2 2 2 2 2 3 3
12 12 11 11 11 10 9 9 8 8 7 5 4 3 3 3 2 2 2 1 2 2 2 2 2 2 2 2 2 2 3 2 3 2 3 3 2 2 2 2 2 2 3
13 12 11 11 10 9 9 9 8 7 6 6 5 5 4 3 3 2 3 2 2 3 2 2 3 3 3 2 2 3 3 2 3 2 3 3 3 2 2 2 2 2 2
12 12 12 11 11 10 9 9 8 7 6 6 5 5 4 4 3 4 3 3 3 3 3 3 3 3 3 3 3 3 3 3 3 3 3 3 3 3 3 2 2 2 3
12 12 11 11 11 10 9 9 8 7 7 6 6 6 5 5 4 4 4 3 4 4 4 3 3 3 3 3 3 3 3 4 4 4 4 4 4 3 3 3 3 3 3
12 12 11 11 10 10 9 9 8 8 7 7 6 6 6 5 5 5 4 4 4 4 4 4 3 3 3 3 3 3 3 4 4 4 4 5 5 5 5 3 4 3 3
13 13 12 11 11 10 10 9 8 8 8 8 7 6 6 6 5 5 5 5 4 4 4 4 4 4 3 4 4 3 3 3 4 4 4 5 6 8 6 5 5 5 3
14 13 13 12 12 12 11 10 9 9 8 8 7 6 6 6 5 5 5 5 4 4 4 3 3 3 4 6 6 5 2 2 3 4 4 3 3 3 1 3 5 6 5
14 14 14 13 12 12 12 11 10 9 9 8 8 7 7 6 6 6 5 5 4 4 3 3 3 3 5 4 4 5 3 3 3 4 4 3 3 4 4 2 4 2 2
13 13 13 12 12 12 11 11 10 10 9 9 8 7 7 7 6 5 5 4 4 4 3 2 2 3 4 4 3 4 3 2 2 3 4 4 4 6 8 7 5 5 4
12 12 12 12 12 12 12 12 11 10 9 9 8 8 7 7 6 6 5 4 3 3 3 2 2 2 3 3 3 5 2 2 2 3 3 5 5 6 8 7 6 6 5
10 11 11 12 12 12 12 12 11 10 9 8 8 7 7 7 6 6 5 4 3 3 3 2 1 1 1 3 2 5 3 3 3 3 2 2 5 7 8 8 7 7 7
11 11 12 11 11 12 12 12 11 10 9 8 7 7 7 6 6 5 4 4 4 3 3 2 2 1 0 2 1 4 4 4 4 4 4 3 3 6 8 9 7 8 10
12 12 11 10 10 11 12 11 10 9 8 8 8 7 7 6 5 5 4 4 4 4 3 3 2 2 1 1 0 2 4 7 5 5 5 4 5 7 8 7 7 9 10
11 11 11 11 10 11 11 11 10 9 9 9 8 7 7 6 5 6 5 4 4 3 3 2 2 2 1 1 3 3 4 5 5 5 5 7 8 9 7 6 8 9 7
11 11 12 11 10 10 10 9 10 10 10 9 8 7 7 6 5 4 4 3 3 3 3 2 2 2 2 2 2 2 3 4 5 5 5 7 9 8 7 7 6 6 5
10 10 10 10 10 10 9 9 9 10 9 9 7 7 6 5 5 4 2 3 2 1 2 2 3 3 3 2 5 5 5 5 5 7 6 6 5 6 5 5 5 6 6
9 9 9 9 10 10 9 9 9 9 9 8 7 5 5 4 4 4 3 1 1 2 2 2 4 2 2 3 4 6 7 7 8 7 6 6 6 7 6 6 6 6 6
Wind_Direction
166 162 162 161 160 159 155 148 152 149 148 142 140 128 115 107 88 69 59 47 36 34 35 22 33 21 33 24 24 28 45 33 356 344 99 112 81 49 44 19 12 34 27
168 162 164 164 164 159 157 153 153 153 150 138 128 119 108 98 75 73 64 46 41 34 30 29 35 40 37 32 30 24 6 29 4 343 323 112 125 77 56 40 32 24 27
176 169 167 166 165 163 162 160 157 156 154 147 137 136 134 151 135 110 77 47 37 41 34 31 29 29 31 38 22 21 16 15 27 17 351 352 33 22 71 46 45 37 23
177 172 170 169 168 166 166 164 162 160 156 158 158 158 159 129 93 83 87 91 58 49 37 32 31 35 35 39 27 30 14 3 20 39 22 18 19 335 39 74 51 41 34
177 175 174 171 167 163 165 165 163 159 158 160 154 171 150 119 113 111 106 102 84 66 54 34 34 36 37 35 29 23 13 18 12 16 19 28 24 342 354 31 20 38 42
175 172 168 166 160 158 162 164 163 155 157 163 164 164 144 134 127 125 110 119 110 94 78 49 45 39 34 33 28 24 32 21 23 9 16 4 5 4 6 358 7 19 32
171 169 168 168 164 165 166 168 165 160 165 168 163 155 150 154 143 132 122 114 107 99 80 66 50 44 36 34 28 32 29 35 24 13 15 13 7 1 355 352 0 352 14
172 170 170 169 168 169 169 171 168 163 166 171 161 151 146 154 121 122 108 104 74 72 76 75 62 55 45 38 35 21 35 27 34 30 22 10 17 5 0 353 337 334 5
172 170 169 169 169 170 170 172 170 167 167 166 160 159 153 147 134 134 120 98 86 83 82 80 76 68 51 31 25 28 35 27 22 20 22 14 19 4 1 341 325 326 330
171 169 169 170 167 166 165 167 169 165 161 159 155 148 152 144 132 128 117 105 96 95 101 84 75 71 62 48 37 34 31 32 39 12 3 3 357 2 347 329 326 316 314
172 170 168 167 164 161 163 167 168 166 162 160 155 153 148 141 137 119 108 110 104 109 100 82 72 65 51 49 55 42 41 31 32 23 18 10 7 352 353 347 337 330 319
170 168 165 163 163 165 166 168 167 165 163 161 158 150 143 144 136 119 115 115 107 101 95 87 76 67 54 46 45 43 36 35 30 23 19 18 22 9 4 351 344 344 328
167 165 163 165 164 165 166 166 166 164 160 159 157 153 147 138 129 120 114 114 111 107 98 87 77 68 57 54 48 44 38 36 31 27 24 22 17 11 16 352 350 345 337
170 169 166 166 164 164 164 164 163 160 157 155 155 150 140 136 133 124 121 115 109 105 97 87 76 66 58 49 46 44 41 41 39 32 29 25 18 8 2 353 352 341 332
174 173 170 166 164 163 163 160 159 158 156 155 153 145 139 137 132 128 126 114 106 102 94 88 79 69 58 43 25 35 39 40 39 36 36 40 33 20 4 354 347 341 330
177 175 173 168 168 166 163 160 161 159 159 158 149 140 142 138 138 135 129 120 116 108 100 95 84 75 63 49 16 350 26 30 30 24 22 38 42 22 11 354 339 335 334
177 176 175 173 172 168 163 163 161 158 161 157 150 150 149 145 144 140 135 134 133 122 114 104 94 87 77 57 26 345 337 9 10 3 6 6 12 340 345 313 247 254 262
178 176 173 170 169 164 161 158 157 161 161 158 155 154 155 151 147 144 143 149 143 135 133 118 110 94 80 57 21 322 306 352 355 348 344 342 351 9 341 327 328 328 326
176 172 170 165 163 162 160 158 161 163 163 162 162 160 159 155 154 153 155 152 149 148 152 141 135 133 111 76 7 312 317 321 332 335 342 337 338 11 329 312 317 317 318
167 165 163 161 161 161 160 163 163 165 167 167 166 163 162 161 163 163 161 155 159 164 163 153 171 167 108 83 12 312 304 312 313 313 307 4 336 342 324 308 311 312 319
161 160 160 162 162 161 164 169 169 171 165 163 163 165 166 166 164 164 166 167 167 171 179 176 193 208 264 118 53 319 306 315 309 308 305 331 337 315 311 301 305 319 312
159 160 158 157 159 163 168 169 170 162 156 158 162 164 163 162 162 164 172 178 176 184 193 207 211 228 219 274 258 290 301 312 304 304 308 330 328 304 296 294 308 304 294
157 159 156 154 158 166 171 169 162 156 157 159 162 164 163 163 167 171 176 182 188 203 213 222 237 243 252 206 213 247 271 280 287 300 321 313 302 291 276 270 279 279 280
158 157 156 158 160 166 172 167 157 159 162 163 163 165 166 166 168 173 184 189 196 208 221 233 244 253 253 272 290 282 270 258 270 286 284 268 270 268 275 277 268 272 285
157 159 160 162 163 165 168 165 163 166 168 166 166 167 166 168 173 173 184 201 196 230 247 250 256 266 272 335 338 310 306 312 313 307 292 290 291 288 285 285 285 283 279
154 157 159 162 164 165 164 163 168 173 173 170 169 168 168 170 177 176 168 138 207 168 218 271 283 273 295 309 298 295 295 298 296 290 285 289 291 293 294 293 291 287 285